{"data":{"norad_id":52159,"intl_designator":"2022-033C","name":"ENMAP","alt_names":[],"object_type":"PAYLOAD","status":"ACTIVE","operator":null,"country":"GER","launch_date":"2022-04-01","launch_site_code":"AFETR","launch_vehicle":null,"mission":null,"orbit_class":"UNKNOWN","rcs_meters":null,"size_class":null,"mass_kg":null,"dimensions":null,"purposes":[],"wikipedia_slug":null,"has_3d_model":false,"image_url":null,"decayed_at":null,"tle_current":{"epoch":"2026-05-25T05:39:51.073920Z","epoch_age_seconds":64733,"freshness":"FRESH","line1":"1 52159U 22033C   26145.23600780 -.00000183  00000+0 -19755-4 0  9990","line2":"2 52159  97.9784 227.8112 0001405  84.7771 275.3598 14.74962731223274","mean_motion":14.74962731,"eccentricity":0.0001405,"inclination_deg":97.9784,"raan_deg":227.8112,"arg_perigee_deg":84.7771,"mean_anomaly_deg":275.3598,"bstar":-1.9755e-5,"rev_number":22327,"period_min":97.629585462387,"perigee_km":644.28279101005,"apogee_km":646.25636825893,"semimajor_km":7023.4065796345,"source":"CELESTRAK","updated_at":"2026-05-25T13:37:57.649402Z"}}}